Wichita, KS

6:19 PM CST on December 07, 2019 (GMT -0600)
Wichita Eisenhower National Airport

Weather History for KICT - November, 2019

Change the Weather History Date:

Friday, November 15, 2019

  Actual Average Record
Temperature  
Mean Temperature 42 °F 46 °F  
Max Temperature 60 °F 57 °F 77 °F (1952)
Min Temperature 23 °F 35 °F 10 °F (1940)
Degree Days  
Heating Degree Days 23 19  
Month to date heating degree days 350 239  
Since 1 July heating degree days 697 525  
Cooling Degree Days 0 0  
Month to date cooling degree days 0 0  
Year to date cooling degree days 1881 1684  
Moisture  
Dew Point 27 °F    
Average Humidity 59    
Maximum Humidity 84    
Minimum Humidity 33    
Precipitation  
Precipitation 0.00 in 0.04 in 2.83 in (1964)
Month to date precipitation 0.01 0.82  
Year to date precipitation 39.70 30.83  
Snow  
Snow 0.00 in 0.10 in 3.00 in (1937)
Month to date snowfall T 0.3  
Since 1 July snowfall 0.4 0.4  
Since 1 September snowfall 0.4 0.4  
Snow Depth 0.00 in    
Sea Level Pressure  
Sea Level Pressure 30.31 in    
Wind  
Wind Speed 9 mph (SSE)    
Max Wind Speed 20 mph    
Max Gust Speed 25 mph    
Visibility 10 miles    
Events      
T = Trace of Precipitation, MM = Missing Value Source: NWS Daily Summary

Daily Weather History Graph

Daily Weather History Graph

Search for Another Location

Airport or City:

Astronomy

Nov. 15, 2019 Rise Set
Actual Time 7:09 AM CST 5:18 PM CST
Civil Twilight 6:41 AM CST 5:46 PM CST
Nautical Twilight 6:09 AM CST 6:18 PM CST
Astronomical Twilight 5:38 AM CST 6:49 PM CST
Moon 7:57 PM CST (11/15) 10:05 AM CST (11/15)
Length of Visible Light 11h 05m
Length of Day
10h 09m
Waning Gibbous, 90% of the Moon is Illuminated
Nov 15
Waning Gibbous
Nov 19
Last Quarter
Nov 26
New
Dec 4
First Quarter
Dec 11
Full

Hourly Weather History & Observations

Time (CST) Temp. Windchill Dew Point Humidity Pressure Visibility Wind Dir Wind Speed Gust Speed Precip Events Conditions
12:53 AM 28.0 °F - 21.0 °F 75% 30.41 in 10.0 mi Calm Calm - N/A   Clear
1:53 AM 26.1 °F 21.9 °F 19.9 °F 78% 30.41 in 10.0 mi WSW 3.5 mph - N/A   Clear
2:53 AM 26.1 °F 20.5 °F 21.0 °F 81% 30.40 in 10.0 mi SW 4.6 mph - N/A   Clear
4:53 AM 28.9 °F 25.2 °F 21.9 °F 75% 30.39 in 10.0 mi SSE 3.5 mph - N/A   Clear
5:53 AM 26.1 °F 21.9 °F 19.9 °F 78% 30.39 in 10.0 mi SE 3.5 mph - N/A   Clear
6:53 AM 24.1 °F - 19.9 °F 84% 30.39 in 10.0 mi Calm Calm - N/A   Partly Cloudy
7:53 AM 27.0 °F - 23.0 °F 85% 30.39 in 10.0 mi Calm Calm - N/A   Partly Cloudy
9:53 AM 46.0 °F 41.4 °F 30.9 °F 56% 30.39 in 10.0 mi South 9.2 mph - N/A   Partly Cloudy
10:53 AM 52.0 °F - 32.0 °F 47% 30.39 in 10.0 mi South 12.7 mph - N/A   Partly Cloudy
11:53 AM 55.9 °F - 32.0 °F 40% 30.35 in 10.0 mi South 15.0 mph 23.0 mph N/A   Partly Cloudy
12:53 PM 59.0 °F - 30.9 °F 35% 30.31 in 10.0 mi South 16.1 mph - N/A   Partly Cloudy
1:53 PM 59.0 °F - 30.0 °F 33% 30.28 in 10.0 mi South 15.0 mph 24.2 mph N/A   Partly Cloudy
2:53 PM 59.0 °F - 30.0 °F 33% 30.25 in 10.0 mi SSE 17.3 mph - N/A   Partly Cloudy
3:53 PM 57.9 °F - 28.9 °F 33% 30.24 in 10.0 mi SSE 16.1 mph - N/A   Partly Cloudy
4:53 PM 54.0 °F - 28.9 °F 38% 30.24 in 10.0 mi SSE 13.8 mph - N/A   Scattered Clouds
5:53 PM 50.0 °F - 28.9 °F 44% 30.25 in 10.0 mi SSE 9.2 mph - N/A   Partly Cloudy
6:53 PM 46.9 °F - 28.0 °F 48% 30.26 in 10.0 mi SSE 10.4 mph - N/A   Partly Cloudy
7:53 PM 44.1 °F 39.5 °F 28.0 °F 53% 30.26 in 10.0 mi SE 8.1 mph - N/A   Partly Cloudy
8:53 PM 45.0 °F 39.7 °F 28.0 °F 52% 30.25 in 10.0 mi SSE 10.4 mph - N/A   Partly Cloudy
9:53 PM 43.0 °F 37.7 °F 28.0 °F 56% 30.24 in 10.0 mi SSE 9.2 mph - N/A   Partly Cloudy
10:53 PM 41.0 °F 35.8 °F 27.0 °F 57% 30.22 in 10.0 mi SSE 8.1 mph - N/A   Clear
11:53 PM 39.9 °F 33.9 °F 27.0 °F 60% 30.21 in 10.0 mi SSE 9.2 mph - N/A   Scattered Clouds